| time (UTC) | temp F | wind direction | speed MPH | gust MPH | rain 1hr in | rain 24hr in | rain mn in | humidity % | barometer mb |
| 20260504175610 | 44 | 114 | 6.0 | 18.0 | 0.00 | 0.00 | 0.00 | 82 | 903.1 |
| 20260504174610 | 45 | 127 | 5.0 | 9.0 | 0.00 | 0.00 | 0.00 | 81 | 903.0 |
| 20260504173610 | 45 | 149 | 5.0 | 8.0 | 0.00 | 0.00 | 0.00 | 81 | 902.9 |
| 20260504172610 | 45 | 138 | 5.0 | 8.0 | 0.00 | 0.00 | 0.00 | 82 | 902.7 |
| 20260504171608 | 45 | 162 | 5.0 | 7.0 | 0.00 | 0.00 | 0.00 | 81 | 902.5 |
| 20260504170608 | 45 | 173 | 4.0 | 7.0 | 0.00 | 0.00 | 0.00 | 80 | 902.6 |
| 20260504150602 | 48 | 101 | 3.0 | 10.0 | 0.00 | 0.00 | 0.00 | 56 | 901.4 |
| 20260504140600 | 49 | 349 | 3.0 | 5.0 | 0.00 | 0.00 | 0.79 | 37 | 900.5 |
| 20260504130556 | 49 | 271 | 12.0 | 20.0 | 0.00 | 0.00 | 0.79 | 32 | 898.8 |
| 20260504110550 | 49 | 269 | 16.0 | 39.0 | 0.00 | 0.00 | 0.79 | 45 | 895.9 |
| 20260504100548 | 50 | 262 | 26.0 | 47.0 | 0.00 | 0.00 | 0.79 | 46 | 893.3 |
| 20260504081542 | 52 | 235 | 24.0 | 50.0 | 0.00 | 0.00 | 0.79 | 58 | 893.1 |
| 20260504080543 | 52 | 250 | 25.0 | 53.0 | 0.00 | 0.00 | 0.79 | 58 | 892.9 |
| 20260504050533 | 58 | 217 | 22.0 | 48.0 | 0.00 | 0.00 | 0.79 | 67 | 892.4 |
| 20260504045532 | 58 | 273 | 25.0 | 58.0 | 0.00 | 0.00 | 0.79 | 63 | 892.4 |
| 20260504044532 | 58 | 229 | 28.0 | 65.0 | 0.00 | 0.00 | 0.79 | 63 | 892.5 |
| 20260504043532 | 58 | 263 | 30.0 | 63.0 | 0.00 | 0.00 | 0.79 | 67 | 891.8 |
| 20260504042531 | 58 | 219 | 29.0 | 56.0 | 0.00 | 0.00 | 0.79 | 65 | 892.4 |
| 20260504041530 | 58 | 239 | 28.0 | 63.0 | 0.00 | 0.00 | 0.79 | 68 | 892.6 |
| 20260504040530 | 58 | 252 | 30.0 | 57.0 | 0.00 | 0.00 | 0.79 | 67 | 892.4 |
| 20260504035530 | 58 | 240 | 27.0 | 60.0 | 0.00 | 0.00 | 0.79 | 64 | 892.2 |
| 20260504034529 | 58 | 232 | 27.0 | 57.0 | 0.00 | 0.00 | 0.79 | 68 | 892.7 |
| 20260504033529 | 59 | 228 | 25.0 | 48.0 | 0.00 | 0.00 | 0.79 | 70 | 893.1 |
| 20260504032529 | 58 | 228 | 25.0 | 51.0 | 0.00 | 0.00 | 0.79 | 69 | 892.9 |
| 20260504031528 | 59 | 212 | 24.0 | 47.0 | 0.00 | 0.00 | 0.79 | 68 | 893.1 |
| 20260504030527 | 59 | 253 | 25.0 | 57.0 | 0.00 | 0.00 | 0.79 | 70 | 892.7 |
| 20260504025527 | 59 | 280 | 27.0 | 51.0 | 0.00 | 0.00 | 0.79 | 67 | 892.6 |
| 20260504024526 | 58 | 250 | 31.0 | 58.0 | 0.00 | 0.00 | 0.79 | 66 | 892.6 |
| 20260504023526 | 58 | 225 | 30.0 | 65.0 | 0.00 | 0.00 | 0.79 | 66 | 892.9 |
| 20260504022526 | 58 | 260 | 32.0 | 61.0 | 0.00 | 0.00 | 0.79 | 64 | 892.7 |
| 20260504021525 | 58 | 262 | 32.0 | 60.0 | 0.00 | 0.00 | 0.79 | 67 | 892.7 |
| 20260504020525 | 58 | 225 | 29.0 | 54.0 | 0.00 | 0.00 | 0.79 | 67 | 892.6 |
| 20260504015524 | 58 | 245 | 31.0 | 54.0 | 0.00 | 0.00 | 0.79 | 69 | 892.6 |
| 20260504014524 | 59 | 249 | 33.0 | 65.0 | 0.00 | 0.00 | 0.79 | 68 | 892.7 |
| 20260504013524 | 59 | 253 | 32.0 | 63.0 | 0.00 | 0.00 | 0.79 | 69 | 892.4 |
| 20260504012523 | 59 | 236 | 35.0 | 66.0 | 0.00 | 0.00 | 0.79 | 73 | 892.6 |
| 20260504011523 | 58 | 232 | 35.0 | 71.0 | 0.00 | 0.00 | 0.79 | 72 | 892.3 |
| 20260504010522 | 59 | 248 | 32.0 | 59.0 | 0.00 | 0.00 | 0.79 | 69 | 892.6 |
| 20260504005521 | 59 | 249 | 32.0 | 62.0 | 0.00 | 0.00 | 0.79 | 69 | 892.6 |
| 20260504004521 | 59 | 269 | 34.0 | 57.0 | 0.00 | 0.00 | 0.79 | 73 | 892.6 |
| 20260504003520 | 59 | 256 | 33.0 | 60.0 | 0.00 | 0.00 | 0.79 | 68 | 892.6 |
| 20260504002520 | 59 | 238 | 34.0 | 77.0 | 0.00 | 0.00 | 0.79 | 62 | 892.7 |
| 20260504001519 | 59 | 245 | 35.0 | 73.0 | 0.00 | 0.00 | 0.79 | 50 | 892.1 |
| 20260504000520 | 58 | 210 | 36.0 | 77.0 | 0.00 | 0.00 | 0.79 | 58 | 892.1 |
| 20260503235519 | 58 | 242 | 33.0 | 64.0 | 0.00 | 0.00 | 0.79 | 55 | 892.2 |
| 20260503234518 | 58 | 256 | 34.0 | 76.0 | 0.00 | 0.00 | 0.79 | 57 | 892.5 |
| 20260503233518 | 58 | 238 | 35.0 | 68.0 | 0.00 | 0.00 | 0.79 | 53 | 892.1 |
| 20260503232518 | 58 | 256 | 37.0 | 68.0 | 0.00 | 0.00 | 0.79 | 59 | 892.0 |
| 20260503231517 | 58 | 215 | 35.0 | 66.0 | 0.00 | 0.00 | 0.79 | 61 | 892.7 |
| 20260503230516 | 58 | 243 | 36.0 | 63.0 | 0.00 | 0.00 | 0.79 | 57 | 892.5 |
| 20260503225516 | 58 | 235 | 36.0 | 70.0 | 0.00 | 0.00 | 0.79 | 56 | 892.8 |
| 20260503224515 | 59 | 246 | 37.0 | 67.0 | 0.00 | 0.00 | 0.79 | 50 | 893.1 |
| 20260503223515 | 59 | 269 | 36.0 | 83.0 | 0.00 | 0.00 | 0.79 | 50 | 893.1 |
| 20260503222514 | 59 | 224 | 37.0 | 78.0 | 0.00 | 0.00 | 0.78 | 41 | 892.8 |
| 20260503221515 | 59 | 253 | 36.0 | 67.0 | 0.00 | 0.00 | 0.78 | 38 | 892.8 |
| 20260503220513 | 60 | 243 | 33.0 | 70.0 | 0.00 | 0.00 | 0.78 | 43 | 892.8 |
| 20260503215513 | 60 | 259 | 34.0 | 81.0 | 0.00 | 0.00 | 0.78 | 53 | 892.6 |
| 20260503214513 | 60 | 240 | 30.0 | 59.0 | 0.00 | 0.00 | 0.77 | 61 | 893.3 |
| 20260503213513 | 61 | 270 | 29.0 | 57.0 | 0.00 | 0.00 | 0.76 | 68 | 893.1 |
| 20260503212512 | 62 | 217 | 27.0 | 67.0 | 0.00 | 0.00 | 0.76 | 65 | 893.2 |
| 20260503211511 | 62 | 253 | 25.0 | 65.0 | 0.00 | 0.00 | 0.74 | 62 | 892.9 |
| 20260503210511 | 62 | 276 | 26.0 | 59.0 | 0.00 | 0.00 | 0.72 | 70 | 893.1 |
| 20260503205510 | 62 | 224 | 27.0 | 53.0 | 0.00 | 0.00 | 0.69 | 66 | 893.2 |
| 20260503204511 | 62 | 221 | 26.0 | 62.0 | 0.00 | 0.00 | 0.68 | 65 | 894.0 |
| 20260503203510 | 62 | 239 | 25.0 | 65.0 | 0.00 | 0.00 | 0.64 | 69 | 893.3 |
| 20260503202509 | 62 | 228 | 31.0 | 76.0 | 0.00 | 0.00 | 0.62 | 62 | 892.9 |
| 20260503201509 | 62 | 232 | 25.0 | 66.0 | 0.00 | 0.00 | 0.61 | 67 | 893.4 |
| 20260503200509 | 62 | 225 | 29.0 | 61.0 | 0.00 | 0.00 | 0.58 | 71 | 893.8 |
| 20260503195508 | 62 | 222 | 26.0 | 56.0 | 0.00 | 0.00 | 0.55 | 61 | 893.7 |
| 20260503194507 | 62 | 232 | 27.0 | 68.0 | 0.00 | 0.00 | 0.50 | 65 | 893.7 |
| 20260503193507 | 62 | 259 | 28.0 | 69.0 | 0.00 | 0.00 | 0.47 | 65 | 893.2 |
| 20260503192506 | 61 | 248 | 33.0 | 79.0 | 0.00 | 0.00 | 0.45 | 62 | 892.7 |
| 20260503191506 | 61 | 212 | 31.0 | 67.0 | 0.00 | 0.00 | 0.43 | 55 | 892.7 |
| 20260503190505 | 61 | 246 | 32.0 | 62.0 | 0.00 | 0.00 | 0.42 | 64 | 893.8 |
| 20260503185505 | 61 | 249 | 29.0 | 59.0 | 0.00 | 0.00 | 0.39 | 67 | 893.5 |
| 20260503184505 | 61 | 228 | 30.0 | 70.0 | 0.00 | 0.00 | 0.37 | 66 | 893.9 |
| 20260503183504 | 61 | 228 | 33.0 | 67.0 | 0.00 | 0.00 | 0.35 | 66 | 893.9 |
| 20260503182504 | 61 | 233 | 28.0 | 72.0 | 0.00 | 0.00 | 0.34 | 65 | 894.6 |
| 20260503181504 | 60 | 283 | 29.0 | 63.0 | 0.00 | 0.00 | 0.32 | 68 | 894.3 |
| 20260503180503 | 60 | 195 | 25.0 | 63.0 | 0.00 | 0.00 | 0.30 | 67 | 894.2 |